Location: Heppenheim
(49.6410°N, 8.6370°E)
Time: 20:34:33
(UTC+01:00)

ISS - Visible Passes

Search period start: 02 December 2024 00:00
Search period end: 12 December 2024 00:00
Orbit: 411 x 421 km, 51.6° (Epoch: 02 December)

Date Brightness Start Highest point End Pass type
(mag) Time Alt. Az. Time Alt. Az. Time Alt. Az.
02 Dec -1.9 17:44:35 10° W 17:47:39 32° SSW 17:50:42 10° SSE visible
03 Dec -0.1 18:35:16 10° SW 18:35:17 10° SW 18:35:18 10° SW visible
04 Dec -0.7 17:44:51 10° W 17:46:57 16° SW 17:49:03 10° S visible
